Jinniuzuo naxing

operational
NORAD ID: 44530 Int'l Des: 2019-059 Owner: ASES Country: CN
LEOCIRCULARRETROGRADE

Jinniuzuo naxingについて

説明を読み込み中...

リアルタイム位置

3D地球を読み込み中...

次回通過

高度履歴

Altitude vs Time

uPlot chart will show altitude changes over time

軌道要素

1 44530U 19059C 26063.52372625 .00011615 00000-0 19115-2 0 9992
2 44530 98.6292 222.0178 0008300 273.9491 86.0765 14.70702546343257
Epoch: Mar 4, 2026 • Age: 21 hours

現在のステータス

高度 672.3 km
速度 7.52 km/s
衛星直下点 54.14°N, 92.96°E
打ち上げ日 Sep 12, 2019
運用期間 6.4 years
タイプ other

技術仕様

分類 Payload
質量 4.00 kg
乾燥質量 4.00 kg
総質量 4.00 kg
長さ 0.30 m
直径 0.10 m
スパン 1.00 m
形状 Box + sail
製造者 ASES
バスタイプ Cubesat 3U
フェーズステータス In Orbit
所有者/国 ASES/CN

大規模コンステレーション

Loading constellations...